Location: Perryvale
(54.4667°N, 113.3833°W)
Time: 10:34:36
(UTC+00:00)

Transit 2A - Visible Passes

Search period start: 19 May 2024 00:00
Search period end: 29 May 2024 00:00
Orbit: 594 x 957 km, 66.7° (Epoch: 18 May)

Date Brightness Start Highest point End Pass type
(mag) Time Alt. Az. Time Alt. Az. Time Alt. Az.
19 May 6.9 06:35:38 22° SSE 06:37:22 28° ESE 06:41:42 10° NE visible
19 May 6.2 08:16:00 14° SW 08:20:05 65° NW 08:25:24 10° NE visible
19 May 7.9 09:59:54 10° WNW 10:04:11 27° NNW 10:08:51 10° NE visible
20 May 7.2 06:00:48 17° SE 06:02:27 20° ESE 06:06:08 10° ENE visible
20 May 5.9 07:41:10 17° SW 07:44:51 85° NW 07:50:11 10° NE visible
20 May 7.7 09:24:18 10° W 09:28:43 30° NNW 09:33:33 10° NE visible
21 May 7.6 05:25:53 12° SE 05:27:36 14° ESE 05:30:15 10° ENE visible
21 May 5.8 07:06:15 19° SSW 07:09:40 73° SE 07:14:57 10° NE visible
21 May 7.4 08:48:44 10° W 08:53:17 35° NNW 08:58:18 10° NE visible
22 May 6.0 06:31:13 18° SSW 06:34:34 54° ESE 06:39:41 10° NE visible
22 May 7.1 08:13:13 10° WSW 08:17:53 42° NNW 08:23:04 10° NE visible
22 May 8.3 09:58:13 10° WNW 10:02:23 24° N 10:06:53 10° NE visible
23 May 6.4 05:56:04 15° S 05:59:32 39° ESE 06:04:22 10° NE visible
23 May 6.7 07:37:47 10° WSW 07:42:32 52° NW 07:47:51 10° NE visible
23 May 8.2 09:22:37 10° WNW 09:26:51 25° NNW 09:31:28 10° NE visible
24 May 6.8 05:20:44 11° S 05:24:33 28° ESE 05:28:56 10° NE visible
24 May 6.3 07:02:26 10° SW 07:07:15 66° NW 07:12:38 10° NE visible
24 May 8.1 08:47:00 10° WNW 08:51:22 27° NNW 08:56:06 10° NE visible
25 May 7.2 04:46:09 10° SSE 04:49:38 20° ESE 04:53:21 10° ENE visible
25 May 5.9 06:27:12 10° SW 06:32:01 86° NW 06:37:25 10° NE visible
25 May 7.9 08:11:24 10° W 08:15:53 31° NNW 08:20:48 10° NE visible
25 May 8.6 09:56:23 10° NW 10:00:38 23° N 10:05:12 10° NE visible
26 May 5.8 05:52:04 10° SSW 05:56:50 72° SE 06:02:11 10° NE visible
26 May 7.6 07:35:50 10° W 07:40:26 36° NNW 07:45:32 10° NE visible
26 May 8.6 09:20:51 10° NW 09:25:05 23° N 09:29:37 10° NE visible
27 May 6.0 05:17:05 10° SSW 05:21:44 53° ESE 05:26:54 10° NE visible
27 May 7.2 07:00:19 10° WSW 07:05:03 43° NNW 07:10:18 10° NE visible
27 May 8.5 08:45:17 10° WNW 08:49:32 24° N 08:54:08 10° NE visible
28 May 6.4 04:42:16 10° S 04:46:41 38° ESE 04:51:33 10° NE visible
28 May 6.8 06:24:52 10° WSW 06:29:41 53° NW 06:35:04 10° NE visible
28 May 8.4 08:09:41 10° WNW 08:14:00 25° NNW 08:18:41 10° NE visible
28 May 8.7 09:54:19 10° NW 09:58:51 25° NNE 10:03:43 10° ENE visible
